When you browse on this site, cookies collect data to enhance your experience and personalize the content and advertising you see.
Visit our Privacy Policy to learn more. By continuing to use the site, you agree to this use of cookies and data.
  • In Schweiz
  • Länderverzeichnis
  • Für 7 Tage
  • Wassertemperatur
  • Wetterkarte
  • Widgets
  • user-avatar
    Anmelden

    Stündliche Wetter Springfield

    Heute, 5 Juni, Freitag

    Zeit Temperatur Niederschläge Wind Luftdruck Luftfeuchtigkeit
    00:00 +19°C° 0 mm 1 m/S 735 mmHg 83%
    01:00 +19°C° 0 mm 1 m/S 735 mmHg 86%
    02:00 +18°C° 0.4 mm 1 m/S 735 mmHg 89%
    03:00 +18°C° 0.4 mm 1 m/S 735 mmHg 93%
    04:00 +18°C° 0.4 mm 1 m/S 735 mmHg 97%
    05:00 +19°C° 0.1 mm 1 m/S 735 mmHg 96%
    06:00 +20°C° 0.1 mm 1 m/S 735 mmHg 94%
    07:00 +21°C° 0.1 mm 1 m/S 735 mmHg 93%
    08:00 +23°C° 0.3 mm 2 m/S 735 mmHg 88%
    09:00 +24°C° 0.3 mm 2 m/S 735 mmHg 82%
    10:00 +26°C° 0.3 mm 3 m/S 735 mmHg 77%
    11:00 +26°C° 0.7 mm 3 m/S 735 mmHg 75%
    12:00 +27°C° 0.7 mm 3 m/S 735 mmHg 73%
    13:00 +27°C° 0.7 mm 3 m/S 735 mmHg 71%
    14:00 +27°C° 0.3 mm 3 m/S 735 mmHg 71%
    15:00 +27°C° 0.3 mm 2 m/S 734 mmHg 71%
    16:00 +27°C° 0.3 mm 2 m/S 734 mmHg 71%
    17:00 +26°C° 0.2 mm 2 m/S 734 mmHg 78%
    18:00 +24°C° 0.2 mm 2 m/S 734 mmHg 85%
    19:00 +22°C° 0.2 mm 1 m/S 734 mmHg 93%
    20:00 +21°C° 0 mm 1 m/S 734 mmHg 94%
    21:00 +20°C° 0 mm 1 m/S 734 mmHg 95%
    22:00 +19°C° 0 mm 1 m/S 734 mmHg 97%
    23:00 +19°C° 0 mm 1 m/S 734 mmHg 97%

    Morgen, 6 Juni, Samstag

    Zeit Temperatur Niederschläge Wind Luftdruck Luftfeuchtigkeit
    00:00 +19°C° 0 mm 1 m/S 734 mmHg 98%
    01:00 +18°C° 0 mm 1 m/S 733 mmHg 98%
    02:00 +18°C° 0 mm 1 m/S 733 mmHg 98%
    03:00 +18°C° 0 mm 1 m/S 733 mmHg 98%
    04:00 +18°C° 0 mm 1 m/S 732 mmHg 99%
    05:00 +19°C° 0 mm 1 m/S 732 mmHg 97%
    06:00 +20°C° 0 mm 1 m/S 732 mmHg 96%
    07:00 +21°C° 0 mm 1 m/S 732 mmHg 95%
    08:00 +21°C° 0.4 mm 2 m/S 732 mmHg 91%
    09:00 +23°C° 0.4 mm 2 m/S 732 mmHg 88%
    10:00 +24°C° 0.4 mm 3 m/S 732 mmHg 84%
    11:00 +25°C° 0.5 mm 3 m/S 732 mmHg 78%
    12:00 +25°C° 0.5 mm 4 m/S 731 mmHg 71%
    13:00 +26°C° 0.5 mm 4 m/S 731 mmHg 65%
    14:00 +26°C° 0.3 mm 4 m/S 731 mmHg 62%
    15:00 +26°C° 0.3 mm 4 m/S 731 mmHg 59%
    16:00 +26°C° 0.3 mm 3 m/S 730 mmHg 56%
    17:00 +22°C° 0.1 mm 3 m/S 731 mmHg 64%
    18:00 +20°C° 0.1 mm 2 m/S 731 mmHg 72%
    19:00 +18°C° 0.1 mm 2 m/S 731 mmHg 79%
    20:00 +16°C° 0 mm 2 m/S 731 mmHg 83%
    21:00 +15°C° 0 mm 2 m/S 732 mmHg 86%
    22:00 +14°C° 0 mm 2 m/S 732 mmHg 89%
    23:00 +13°C° 0 mm 2 m/S 732 mmHg 92%

    übermorgen, 7 Juni, Sonntag

    Zeit Temperatur Niederschläge Wind Luftdruck Luftfeuchtigkeit
    00:00 +12°C° 0 mm 1 m/S 732 mmHg 94%
    01:00 +12°C° 0 mm 1 m/S 732 mmHg 96%
    02:00 +10°C° 0 mm 2 m/S 732 mmHg 96%
    03:00 +9°C° 0 mm 2 m/S 732 mmHg 96%
    04:00 +8°C° 0 mm 2 m/S 733 mmHg 96%
    05:00 +10°C° 0 mm 2 m/S 733 mmHg 90%
    06:00 +11°C° 0 mm 3 m/S 734 mmHg 84%
    07:00 +13°C° 0 mm 3 m/S 735 mmHg 78%
    08:00 +14°C° 0 mm 4 m/S 735 mmHg 72%
    09:00 +15°C° 0 mm 4 m/S 735 mmHg 67%
    10:00 +16°C° 0 mm 5 m/S 735 mmHg 61%
    11:00 +17°C° 0 mm 5 m/S 736 mmHg 54%
    12:00 +20°C° 0 mm 5 m/S 736 mmHg 47%
    13:00 +21°C° 0 mm 5 m/S 736 mmHg 41%
    14:00 +21°C° 0 mm 4 m/S 736 mmHg 42%
    15:00 +21°C° 0 mm 4 m/S 736 mmHg 43%
    16:00 +21°C° 0 mm 4 m/S 736 mmHg 44%
    17:00 +19°C° 0 mm 3 m/S 736 mmHg 51%
    18:00 +17°C° 0 mm 3 m/S 737 mmHg 59%
    19:00 +16°C° 0 mm 2 m/S 737 mmHg 67%
    20:00 +14°C° 0 mm 2 m/S 738 mmHg 72%
    21:00 +13°C° 0 mm 2 m/S 738 mmHg 77%
    22:00 +11°C° 0 mm 1 m/S 738 mmHg 82%
    23:00 +10°C° 0 mm 1 m/S 739 mmHg 84%

    8 Juni, Montag

    Zeit Temperatur Niederschläge Wind Luftdruck Luftfeuchtigkeit
    00:00 +10°C° 0 mm 1 m/S 739 mmHg 85%
    01:00 +9°C° 0 mm 1 m/S 739 mmHg 87%
    02:00 +9°C° 0 mm 1 m/S 739 mmHg 88%
    03:00 +9°C° 0 mm 1 m/S 739 mmHg 88%
    04:00 +8°C° 0 mm 1 m/S 739 mmHg 89%
    05:00 +11°C° 0 mm 1 m/S 740 mmHg 80%
    06:00 +13°C° 0 mm 1 m/S 740 mmHg 72%
    07:00 +16°C° 0 mm 1 m/S 741 mmHg 63%
    08:00 +19°C° 0 mm 1 m/S 741 mmHg 56%
    09:00 +19°C° 0 mm 2 m/S 741 mmHg 49%
    10:00 +21°C° 0 mm 2 m/S 741 mmHg 42%
    11:00 +23°C° 0 mm 2 m/S 741 mmHg 40%
    12:00 +24°C° 0 mm 2 m/S 741 mmHg 37%
    13:00 +25°C° 0 mm 2 m/S 741 mmHg 35%
    14:00 +25°C° 0 mm 2 m/S 741 mmHg 36%
    15:00 +25°C° 0 mm 2 m/S 740 mmHg 36%
    16:00 +25°C° 0 mm 3 m/S 740 mmHg 37%
    17:00 +21°C° 0 mm 2 m/S 740 mmHg 47%
    18:00 +20°C° 0 mm 1 m/S 740 mmHg 57%
    19:00 +18°C° 0 mm 1 m/S 740 mmHg 67%
    20:00 +16°C° 0 mm 1 m/S 740 mmHg 70%
    21:00 +14°C° 0 mm 0 m/S 741 mmHg 73%
    22:00 +12°C° 0 mm 0 m/S 741 mmHg 75%
    23:00 +12°C° 0 mm 0 m/S 741 mmHg 78%

    9 Juni, Dienstag

    Zeit Temperatur Niederschläge Wind Luftdruck Luftfeuchtigkeit
    00:00 +11°C° 0 mm 0 m/S 741 mmHg 80%
    01:00 +11°C° 0 mm 0 m/S 741 mmHg 83%
    02:00 +11°C° 0 mm 0 m/S 741 mmHg 81%
    03:00 +12°C° 0 mm 0 m/S 741 mmHg 80%
    04:00 +12°C° 0 mm 0 m/S 741 mmHg 78%
    05:00 +14°C° 0 mm 0 m/S 742 mmHg 73%
    06:00 +17°C° 0 mm 0 m/S 742 mmHg 68%
    07:00 +19°C° 0 mm 0 m/S 742 mmHg 63%
    08:00 +21°C° 0 mm 0 m/S 742 mmHg 57%
    09:00 +25°C° 0 mm 1 m/S 742 mmHg 50%
    10:00 +27°C° 0 mm 1 m/S 742 mmHg 44%
    11:00 +28°C° 0 mm 1 m/S 742 mmHg 42%
    12:00 +29°C° 0 mm 1 m/S 742 mmHg 39%
    13:00 +30°C° 0 mm 2 m/S 741 mmHg 37%
    14:00 +30°C° 0 mm 2 m/S 741 mmHg 39%
    15:00 +30°C° 0 mm 2 m/S 741 mmHg 40%
    16:00 +30°C° 0 mm 2 m/S 741 mmHg 41%
    17:00 +28°C° 0 mm 2 m/S 741 mmHg 52%
    18:00 +25°C° 0 mm 1 m/S 741 mmHg 63%
    19:00 +23°C° 0 mm 1 m/S 741 mmHg 73%
    20:00 +22°C° 0 mm 1 m/S 741 mmHg 76%
    21:00 +20°C° 0 mm 1 m/S 741 mmHg 78%
    22:00 +19°C° 0 mm 1 m/S 742 mmHg 81%
    23:00 +18°C° 0 mm 1 m/S 742 mmHg 84%

    10 Juni, Mittwoch

    Zeit Temperatur Niederschläge Wind Luftdruck Luftfeuchtigkeit
    00:00 +16°C° 0 mm 1 m/S 741 mmHg 87%
    01:00 +16°C° 0 mm 1 m/S 741 mmHg 90%
    02:00 +15°C° 0 mm 1 m/S 742 mmHg 91%
    03:00 +15°C° 0 mm 1 m/S 742 mmHg 92%
    04:00 +15°C° 0 mm 1 m/S 742 mmHg 94%
    05:00 +16°C° 0 mm 1 m/S 742 mmHg 87%
    06:00 +19°C° 0 mm 1 m/S 742 mmHg 79%
    07:00 +21°C° 0 mm 1 m/S 742 mmHg 72%
    08:00 +23°C° 0 mm 2 m/S 742 mmHg 66%
    09:00 +26°C° 0 mm 3 m/S 742 mmHg 59%
    10:00 +28°C° 0 mm 3 m/S 742 mmHg 52%
    11:00 +29°C° 0 mm 4 m/S 742 mmHg 49%
    12:00 +30°C° 0 mm 4 m/S 742 mmHg 45%
    13:00 +32°C° 0 mm 4 m/S 742 mmHg 41%
    14:00 +30°C° 0 mm 4 m/S 742 mmHg 42%
    15:00 +30°C° 0 mm 4 m/S 742 mmHg 42%
    16:00 +29°C° 0 mm 5 m/S 742 mmHg 42%
    17:00 +27°C° 0 mm 4 m/S 742 mmHg 49%
    18:00 +24°C° 0 mm 3 m/S 742 mmHg 56%
    19:00 +21°C° 0 mm 3 m/S 742 mmHg 64%
    20:00 +19°C° 0 mm 3 m/S 742 mmHg 68%
    21:00 +17°C° 0 mm 2 m/S 742 mmHg 73%
    22:00 +15°C° 0 mm 2 m/S 742 mmHg 77%
    23:00 +14°C° 0 mm 2 m/S 742 mmHg 82%
    Mehr zeigen